Time,TemperatureF,DewpointF,PressureIn,WindDirection,WindDirectionDegrees,WindSpeedMPH,WindSpeedGustMPH,Humidity,HourlyPrecipIn,Conditions,Clouds,dailyrainin,SoftwareType,DateUTC
2015-09-04 00:00:00,75.7,69.1,29.89,ESE,112,0.0,0.0,80,0.00,,CLR,0.00,VWS V15.00,2015-09-04 04:00:00,
2015-09-04 00:10:00,75.5,69.3,29.89,ESE,112,0.0,0.0,81,0.00,,CLR,0.00,VWS V15.00,2015-09-04 04:10:00,
2015-09-04 00:50:00,74.2,68.7,29.90,ESE,112,0.0,0.0,83,0.00,,CLR,0.00,VWS V15.00,2015-09-04 04:50:00,
2015-09-04 00:55:00,74.1,69.0,29.90,ESE,112,0.0,0.0,84,0.00,,CLR,0.00,VWS V15.00,2015-09-04 04:55:00,
2015-09-04 01:00:00,74.0,68.9,29.90,ESE,112,0.0,0.0,84,0.00,,CLR,0.00,VWS V15.00,2015-09-04 05:00:00,
2015-09-04 01:05:00,73.9,69.1,29.90,ESE,112,0.0,0.0,85,0.00,,CLR,0.00,VWS V15.00,2015-09-04 05:05:00,
2015-09-04 01:45:00,73.5,69.1,29.91,ESE,112,0.0,0.0,86,0.00,,CLR,0.00,VWS V15.00,2015-09-04 05:45:00,
2015-09-04 01:50:00,73.4,69.0,29.90,ESE,112,0.0,0.0,86,0.00,,CLR,0.00,VWS V15.00,2015-09-04 05:50:00,
2015-09-04 01:55:00,73.3,69.2,29.90,ESE,112,0.0,0.0,87,0.00,,FEW085,0.00,VWS V15.00,2015-09-04 05:55:00,
2015-09-04 02:00:00,73.2,68.8,29.90,ESE,112,0.0,0.0,86,0.00,,FEW085,0.00,VWS V15.00,2015-09-04 06:00:00,
2015-09-04 02:10:00,73.0,68.9,29.90,ESE,112,0.0,0.0,87,0.00,,FEW085,0.00,VWS V15.00,2015-09-04 06:10:00,
2015-09-04 02:15:00,72.8,68.7,29.90,ESE,112,0.0,0.0,87,0.00,,FEW085,0.00,VWS V15.00,2015-09-04 06:15:00,
2015-09-04 02:25:00,72.5,68.4,29.90,ESE,112,0.0,0.0,87,0.00,,FEW085,0.00,VWS V15.00,2015-09-04 06:25:00,
2015-09-04 02:35:00,72.2,68.4,29.91,ESE,112,0.0,0.0,88,0.00,,FEW085,0.00,VWS V15.00,2015-09-04 06:35:00,
2015-09-04 02:40:00,72.1,68.3,29.91,ESE,112,0.0,0.0,88,0.00,,FEW085,0.00,VWS V15.00,2015-09-04 06:40:00,
2015-09-04 02:50:00,71.9,68.5,29.91,ESE,112,0.0,0.0,89,0.00,,FEW085,0.00,VWS V15.00,2015-09-04 06:50:00,
2015-09-04 03:00:00,71.6,67.9,29.90,ESE,112,0.0,0.0,88,0.00,,FEW085,0.00,VWS V15.00,2015-09-04 07:00:00,
2015-09-04 03:05:00,71.5,67.8,29.91,ESE,112,0.0,2.0,88,0.00,,FEW085,0.00,VWS V15.00,2015-09-04 07:05:00,
2015-09-04 03:15:00,71.3,67.9,29.91,ESE,112,0.0,0.0,89,0.00,,FEW085,0.00,VWS V15.00,2015-09-04 07:15:00,
2015-09-04 03:25:00,71.1,67.7,29.91,ESE,112,0.0,0.0,89,0.00,,FEW085,0.00,VWS V15.00,2015-09-04 07:25:00,
2015-09-04 03:35:00,71.0,67.9,29.92,ESE,112,0.0,0.0,90,0.00,,FEW085,0.00,VWS V15.00,2015-09-04 07:35:00,
2015-09-04 03:40:00,70.9,67.5,29.92,ESE,112,0.0,0.0,89,0.00,,FEW085,0.00,VWS V15.00,2015-09-04 07:40:00,
2015-09-04 03:45:00,70.8,67.4,29.92,ESE,112,0.0,0.0,89,0.00,,FEW085,0.00,VWS V15.00,2015-09-04 07:45:00,
2015-09-04 04:00:00,70.7,67.6,29.92,ESE,112,0.0,1.0,90,0.00,,FEW085,0.00,VWS V15.00,2015-09-04 08:00:00,
2015-09-04 04:05:00,70.6,67.8,29.92,ESE,112,0.0,1.0,91,0.00,,FEW085,0.00,VWS V15.00,2015-09-04 08:05:00,
2015-09-04 04:10:00,70.6,67.8,29.92,East,90,1.0,2.0,91,0.00,,FEW085,0.00,VWS V15.00,2015-09-04 08:10:00,
2015-09-04 04:20:00,70.5,67.8,29.92,NE,45,0.0,1.0,91,0.00,,FEW085,0.00,VWS V15.00,2015-09-04 08:20:00,
2015-09-04 04:25:00,70.6,67.8,29.92,NE,45,0.0,1.0,91,0.00,,FEW085,0.00,VWS V15.00,2015-09-04 08:25:00,
2015-09-04 04:35:00,70.5,67.8,29.92,NNE,22,1.0,3.0,91,0.00,,FEW085,0.00,VWS V15.00,2015-09-04 08:35:00,
2015-09-04 04:40:00,70.5,67.8,29.93,North,0,0.0,2.0,91,0.00,,FEW085,0.00,VWS V15.00,2015-09-04 08:40:00,
2015-09-04 04:55:00,71.0,67.9,29.93,NE,45,0.0,5.0,90,0.00,,FEW085,0.00,VWS V15.00,2015-09-04 08:55:00,
2015-09-04 05:00:00,71.0,67.9,29.92,NW,315,0.0,1.0,90,0.00,,FEW085,0.00,VWS V15.00,2015-09-04 09:00:00,
2015-09-04 05:10:00,71.1,67.7,29.92,NNE,22,0.0,1.0,89,0.00,,FEW085,0.00,VWS V15.00,2015-09-04 09:10:00,
2015-09-04 05:15:00,71.0,67.6,29.93,NNE,22,0.0,0.0,89,0.00,,FEW085,0.00,VWS V15.00,2015-09-04 09:15:00,
2015-09-04 05:20:00,70.9,67.5,29.93,NNE,22,0.0,1.0,89,0.00,,FEW085,0.00,VWS V15.00,2015-09-04 09:20:00,
2015-09-04 05:25:00,70.9,67.5,29.93,NNE,22,0.0,1.0,89,0.00,,FEW085,0.00,VWS V15.00,2015-09-04 09:25:00,
2015-09-04 05:30:00,70.8,67.4,29.93,NNE,22,0.0,1.0,89,0.00,,FEW085,0.00,VWS V15.00,2015-09-04 09:30:00,
2015-09-04 05:35:00,70.7,67.3,29.94,NNE,22,0.0,0.0,89,0.00,,FEW085,0.00,VWS V15.00,2015-09-04 09:35:00,
2015-09-04 05:45:00,70.5,67.4,29.94,NNE,22,0.0,2.0,90,0.00,,FEW085,0.00,VWS V15.00,2015-09-04 09:45:00,
2015-09-04 06:15:00,70.0,67.3,29.95,NE,45,0.0,2.0,91,0.00,,FEW085,0.00,VWS V15.00,2015-09-04 10:15:00,
2015-09-04 06:20:00,69.9,66.8,29.96,NE,45,0.0,2.0,90,0.00,,FEW085,0.00,VWS V15.00,2015-09-04 10:20:00,
2015-09-04 06:25:00,69.9,67.2,29.96,North,0,0.0,3.0,91,0.00,,FEW085,0.00,VWS V15.00,2015-09-04 10:25:00,
2015-09-04 06:35:00,69.8,67.1,29.97,NNE,22,0.0,3.0,91,0.00,,FEW085,0.00,VWS V15.00,2015-09-04 10:35:00,
2015-09-04 06:45:00,69.8,67.1,29.97,NE,45,0.0,0.0,91,0.00,,FEW085,0.00,VWS V15.00,2015-09-04 10:45:00,
2015-09-04 06:50:00,69.9,67.2,29.97,North,0,0.0,2.0,91,0.00,,FEW085,0.00,VWS V15.00,2015-09-04 10:50:00,
2015-09-04 06:55:00,70.0,67.3,29.98,North,0,0.0,2.0,91,0.00,,FEW085,0.00,VWS V15.00,2015-09-04 10:55:00,
2015-09-04 07:00:00,70.2,67.4,29.98,North,0,0.0,1.0,91,0.00,,FEW085,0.00,VWS V15.00,2015-09-04 11:00:00,
2015-09-04 07:05:00,70.4,67.3,29.98,North,0,0.0,2.0,90,0.00,,FEW085,0.00,VWS V15.00,2015-09-04 11:05:00,
2015-09-04 07:15:00,70.8,67.7,29.98,ENE,68,0.0,1.0,90,0.00,,FEW085,0.00,VWS V15.00,2015-09-04 11:15:00,
2015-09-04 07:20:00,71.0,67.6,29.98,ENE,68,0.0,2.0,89,0.00,,FEW085,0.00,VWS V15.00,2015-09-04 11:20:00,
2015-09-04 07:30:00,71.5,68.1,29.99,ENE,68,0.0,0.0,89,0.00,,FEW085,0.00,VWS V15.00,2015-09-04 11:30:00,
2015-09-04 07:35:00,71.7,68.3,29.99,NE,45,0.0,2.0,89,0.00,,FEW085,0.00,VWS V15.00,2015-09-04 11:35:00,
2015-09-04 07:40:00,72.0,68.3,30.00,NE,45,0.0,2.0,88,0.00,,FEW085,0.00,VWS V15.00,2015-09-04 11:40:00,
2015-09-04 07:45:00,72.3,68.6,30.00,NE,45,0.0,1.0,88,0.00,,FEW085,0.00,VWS V15.00,2015-09-04 11:45:00,
2015-09-04 07:50:00,72.6,68.8,30.00,NE,45,1.0,4.0,88,0.00,,FEW085,0.00,VWS V15.00,2015-09-04 11:50:00,
2015-09-04 07:55:00,72.8,68.7,30.00,NE,45,1.0,4.0,87,0.00,,FEW085,0.00,VWS V15.00,2015-09-04 11:55:00,
2015-09-04 08:00:00,73.0,68.6,30.00,NE,45,1.0,6.0,86,0.00,,FEW085,0.00,VWS V15.00,2015-09-04 12:00:00,
2015-09-04 08:05:00,73.3,68.9,30.00,ENE,68,1.0,6.0,86,0.00,,FEW085,0.00,VWS V15.00,2015-09-04 12:05:00,
2015-09-04 08:10:00,73.6,68.8,30.01,ENE,68,2.0,8.0,85,0.00,,FEW085,0.00,VWS V15.00,2015-09-04 12:10:00,
2015-09-04 08:15:00,73.8,69.0,30.01,NE,45,1.0,7.0,85,0.00,,FEW085,0.00,VWS V15.00,2015-09-04 12:15:00,
2015-09-04 08:20:00,74.1,69.3,30.01,East,90,1.0,6.0,85,0.00,,FEW085,0.00,VWS V15.00,2015-09-04 12:20:00,
2015-09-04 08:25:00,74.3,69.2,30.01,NE,45,2.0,5.0,84,0.00,,FEW085,0.00,VWS V15.00,2015-09-04 12:25:00,
2015-09-04 08:30:00,74.7,69.6,30.01,East,90,1.0,4.0,84,0.00,,FEW085,0.00,VWS V15.00,2015-09-04 12:30:00,
2015-09-04 08:35:00,75.1,69.6,30.01,North,0,2.0,9.0,83,0.00,,FEW085,0.00,VWS V15.00,2015-09-04 12:35:00,
2015-09-04 08:40:00,75.5,69.3,30.01,SSE,158,1.0,3.0,81,0.00,,FEW085,0.00,VWS V15.00,2015-09-04 12:40:00,
2015-09-04 08:45:00,75.8,69.6,30.01,SE,135,2.0,4.0,81,0.00,,FEW085,0.00,VWS V15.00,2015-09-04 12:45:00,
2015-09-04 08:50:00,75.9,69.7,30.02,ESE,112,1.0,3.0,81,0.00,,FEW085,0.00,VWS V15.00,2015-09-04 12:50:00,
2015-09-04 08:55:00,75.9,69.7,30.02,ESE,112,1.0,3.0,81,0.00,,FEW085,0.00,VWS V15.00,2015-09-04 12:55:00,
2015-09-04 09:00:00,76.0,69.4,30.02,ENE,68,1.0,3.0,80,0.00,,FEW085,0.00,VWS V15.00,2015-09-04 13:00:00,
2015-09-04 09:05:00,76.2,69.6,30.02,East,90,1.0,4.0,80,0.00,,FEW085,0.00,VWS V15.00,2015-09-04 13:05:00,
2015-09-04 09:10:00,76.5,69.9,30.02,ESE,112,1.0,4.0,80,0.00,,FEW085,0.00,VWS V15.00,2015-09-04 13:10:00,
2015-09-04 09:15:00,76.8,70.2,30.02,North,0,1.0,4.0,80,0.00,,FEW085,0.00,VWS V15.00,2015-09-04 13:15:00,
2015-09-04 09:20:00,77.4,70.0,30.02,SE,135,2.0,4.0,78,0.00,,FEW085,0.00,VWS V15.00,2015-09-04 13:20:00,
2015-09-04 09:25:00,78.0,70.6,30.02,ESE,112,1.0,6.0,78,0.00,,FEW085,0.00,VWS V15.00,2015-09-04 13:25:00,
2015-09-04 09:30:00,78.7,70.5,30.02,ESE,112,1.0,2.0,76,0.00,,FEW085,0.00,VWS V15.00,2015-09-04 13:30:00,
2015-09-04 09:35:00,78.9,70.3,30.02,SE,135,2.0,8.0,75,0.00,,FEW085,0.00,VWS V15.00,2015-09-04 13:35:00,
2015-09-04 09:40:00,79.2,71.4,30.02,ESE,112,1.0,4.0,77,0.00,,FEW085,0.00,VWS V15.00,2015-09-04 13:40:00,
2015-09-04 09:45:00,79.7,71.1,30.03,SE,135,1.0,6.0,75,0.00,,FEW085,0.00,VWS V15.00,2015-09-04 13:45:00,
2015-09-04 09:50:00,80.0,70.6,30.03,ESE,112,2.0,8.0,73,0.00,,FEW085,0.00,VWS V15.00,2015-09-04 13:50:00,
2015-09-04 09:55:00,79.8,70.4,30.03,SE,135,2.0,6.0,73,0.00,,FEW085,0.00,VWS V15.00,2015-09-04 13:55:00,
2015-09-04 10:00:00,79.8,70.8,30.03,ESE,112,2.0,8.0,74,0.00,,FEW085,0.00,VWS V15.00,2015-09-04 14:00:00,
2015-09-04 10:05:00,80.1,70.7,30.03,SE,135,2.0,7.0,73,0.00,,FEW085,0.00,VWS V15.00,2015-09-04 14:05:00,
2015-09-04 10:10:00,80.4,70.6,30.03,SE,135,1.0,3.0,72,0.00,,FEW085,0.00,VWS V15.00,2015-09-04 14:10:00,
2015-09-04 10:15:00,81.0,71.1,30.03,SE,135,1.0,5.0,72,0.00,,FEW085,0.00,VWS V15.00,2015-09-04 14:15:00,
2015-09-04 10:20:00,81.3,71.4,30.03,SSE,158,1.0,3.0,72,0.00,,FEW085,0.00,VWS V15.00,2015-09-04 14:20:00,
2015-09-04 10:25:00,81.7,71.0,30.03,ENE,68,1.0,4.0,70,0.00,,FEW085,0.00,VWS V15.00,2015-09-04 14:25:00,
2015-09-04 10:35:00,82.2,71.4,30.04,ESE,105,0.0,1.0,70,0.00,,FEW085,0.00,VWS V15.00,2015-09-04 14:35:00,
2015-09-04 10:40:00,82.4,71.6,30.03,North,360,1.0,5.0,70,0.00,,CLR,0.00,VWS V15.00,2015-09-04 14:40:00,
2015-09-04 10:45:00,82.5,70.9,30.04,ENE,72,0.0,3.0,68,0.00,,CLR,0.00,VWS V15.00,2015-09-04 14:45:00,
2015-09-04 10:50:00,82.8,72.4,30.04,NNW,338,1.0,4.0,71,0.00,,CLR,0.00,VWS V15.00,2015-09-04 14:50:00,
2015-09-04 10:55:00,83.3,72.1,30.04,West,271,1.0,3.0,69,0.00,,CLR,0.00,VWS V15.00,2015-09-04 14:55:00,
2015-09-04 11:00:00,83.9,71.3,30.04,SE,140,3.0,3.0,66,0.00,,CLR,0.00,VWS V15.00,2015-09-04 15:00:00,
2015-09-04 11:05:00,83.9,70.9,30.05,SE,124,1.0,4.0,65,0.00,,CLR,0.00,VWS V15.00,2015-09-04 15:05:00,
2015-09-04 11:10:00,84.0,71.4,30.05,SE,128,2.0,5.0,66,0.00,,CLR,0.00,VWS V15.00,2015-09-04 15:10:00,
2015-09-04 11:15:00,83.8,71.2,30.05,SE,127,4.0,4.0,66,0.00,,CLR,0.00,VWS V15.00,2015-09-04 15:15:00,
2015-09-04 11:20:00,83.7,71.6,30.05,ESE,108,2.0,4.0,67,0.00,,CLR,0.00,VWS V15.00,2015-09-04 15:20:00,
2015-09-04 11:25:00,83.7,71.1,30.05,SSE,147,1.0,1.0,66,0.00,,CLR,0.00,VWS V15.00,2015-09-04 15:25:00,
2015-09-04 11:30:00,83.9,70.9,30.05,ESE,119,2.0,6.0,65,0.00,,CLR,0.00,VWS V15.00,2015-09-04 15:30:00,
2015-09-04 11:35:00,84.0,71.0,30.05,ESE,113,2.0,4.0,65,0.00,,CLR,0.00,VWS V15.00,2015-09-04 15:35:00,
2015-09-04 11:40:00,84.2,72.1,30.05,ESE,115,2.0,2.0,67,0.00,,CLR,0.00,VWS V15.00,2015-09-04 15:40:00,
2015-09-04 11:45:00,84.5,71.9,30.06,ESE,115,1.0,2.0,66,0.00,,CLR,0.00,VWS V15.00,2015-09-04 15:45:00,
2015-09-04 11:50:00,84.7,72.1,30.05,ESE,104,2.0,2.0,66,0.00,,CLR,0.00,VWS V15.00,2015-09-04 15:50:00,
2015-09-04 11:55:00,84.7,71.6,30.06,SE,126,2.0,6.0,65,0.00,,CLR,0.00,VWS V15.00,2015-09-04 15:55:00,
2015-09-04 12:00:00,84.7,72.5,30.06,SSW,199,0.0,4.0,67,0.00,,CLR,0.00,VWS V15.00,2015-09-04 16:00:00,
2015-09-04 12:05:00,84.3,71.7,30.06,East,101,1.0,7.0,66,0.00,,CLR,0.00,VWS V15.00,2015-09-04 16:05:00,
2015-09-04 12:10:00,83.6,71.5,30.06,ESE,104,2.0,4.0,67,0.00,,CLR,0.00,VWS V15.00,2015-09-04 16:10:00,
2015-09-04 12:15:00,83.4,71.7,30.06,SSE,163,1.0,4.0,68,0.00,,CLR,0.00,VWS V15.00,2015-09-04 16:15:00,
2015-09-04 12:20:00,83.1,71.4,30.06,ESE,121,0.0,2.0,68,0.00,,CLR,0.00,VWS V15.00,2015-09-04 16:20:00,
2015-09-04 12:25:00,83.3,71.6,30.06,SE,140,3.0,8.0,68,0.00,,CLR,0.00,VWS V15.00,2015-09-04 16:25:00,
2015-09-04 12:30:00,83.4,72.2,30.06,SE,138,2.0,3.0,69,0.00,,CLR,0.00,VWS V15.00,2015-09-04 16:30:00,
2015-09-04 12:35:00,83.9,72.2,30.06,SE,137,1.0,4.0,68,0.00,,SCT031,0.00,VWS V15.00,2015-09-04 16:35:00,